Tracking 28531 objects as of 27-Feb-2024
HD Live streaming from Space Station
objects crossing your sky now

ARIANE 42P DEB

Track ARIANE 42P DEB now!
10-day predictions


NORAD ID: 44514
Int'l Code: 1992-052M
Perigee: 1,098.5 km
Apogee: 1,506.7 km
Inclination: 65.8 °
Period: 111.5 minutes
Semi major axis: 7673 km
RCS: Unknown
Launch date: August 10, 1992
Source: France (FR)
Launch site: FRENCH GUIANA (FRGUI)

Note: This is SATELLITE DEBRIS
Your satellite tracking list
Your tracking list is empty




NASA's NSSDC Master Catalog

Two Line Element Set (TLE):
1 44514U 92052M   24053.48856880  .00004274  00000-0  13861-1 0  9994
2 44514  65.7699 142.1835 0265959   0.4570 359.6644 12.91536436212246
Source of the keplerian elements: AFSPC